"Pseudo-MPEC" for C1E15V2

Created 2019 Nov 9 12:07:07 UT using Find_Orb

Click here for an explanation of pseudo-MPECs

 
 Astrometry: 
     C1E15V2  C2019 11 04.50694 09 56 35.35 +31 28 49.7    ~B4Cq 21.5 GVNEOCPG96
     C1E15V2  C2019 11 04.51024 09 56 35.97 +31 28 50.7    ~B4Cq       VNEOCPG96
     C1E15V2  C2019 11 04.51564 09 56 36.93 +31 28 51.8    ~B4Cq 21.9 GVNEOCPG96
     C1E15V2  C2019 11 04.52104 09 56 37.91 +31 28 52.5    ~B4Cq 21.4 GVNEOCPG96

Station data:
(G96) Mt. Lemmon Survey  (N32.442754 W110.788720)  US/Arizona.  Observers T.
   A. Pruyne, B. M. Africano, E. J. Christensen, G. A. Farneth, D. C. Fuls,
   A. R. Gibbs, A. D. Grauer, H. Gröller, J. A. Johnson, R. A. Kowalski, S.
   M. Larson, G. J. Leonard, D. Rankin, R. L. Seaman, F. C. Shelly. 1.5-m
   reflector + 10K CCD.

Orbital elements:  C1E15V2
   Perihelion 2019 Sep 3.956832 +/- 77.2 TT = 22:57:50 (JD 2458730.456832)
Epoch 2019 Nov  5.0 TT = JDT 2458792.5   Earth MOID: 0.2652   AutoNEOCP
M  22.57302338 +/- 100              (J2000 ecliptic)
n   0.36382770 +/- 0.64             Peri.    0.61207 +/- 90
a   1.94329561 +/- 2.28             Node    46.52938 +/- 110
e   0.3537796 +/- 0.263             Incl.   19.29737 +/- 59
P   2.71/989.46d           H 19.3   G  0.15   U 12.4  SR
q 1.25579714 +/- 0.492    Q 2.63079409 +/- 12.1
From 4 observations 2019 Nov. 4 (20.3 min); mean residual 0".15
Residuals in arcseconds: 
191104 G96  .11-  .20-    191104 G96  .05-  .20+    
191104 G96  .17+  .16+    191104 G96  .01-  .16-    

Ephemerides (geocentric):
Date (UTC) HH   RA              Dec         delta   r     elong  mag " sig PA
---- -- -- --  -------------   -----------  ------ ------ -----  --- ---- ---
2019 11 09 12  10 11 33.447   +31 43 57.99  1.0891 1.3883  83.6 21.9  42d  24
2019 11 09 13  10 11 40.776   +31 44 05.53  1.0890 1.3885  83.6 21.9  42d  24
2019 11 09 14  10 11 48.103   +31 44 13.06  1.0889 1.3886  83.6 21.9  42d  24
2019 11 09 15  10 11 55.426   +31 44 20.60  1.0888 1.3888  83.7 21.9  42d  24
2019 11 09 16  10 12 02.747   +31 44 28.14  1.0887 1.3889  83.7 21.9  43d  24
2019 11 09 17  10 12 10.065   +31 44 35.68  1.0886 1.3891  83.7 21.9  43d  24
2019 11 09 18  10 12 17.380   +31 44 43.22  1.0885 1.3892  83.7 21.9  43d  24
2019 11 09 19  10 12 24.693   +31 44 50.76  1.0884 1.3894  83.7 21.9  43d  24
2019 11 09 20  10 12 32.002   +31 44 58.30  1.0883 1.3895  83.7 21.9  43d  24
2019 11 09 21  10 12 39.309   +31 45 05.85  1.0882 1.3897  83.8 21.9  43d  24
2019 11 09 22  10 12 46.612   +31 45 13.39  1.0881 1.3898  83.8 21.9  44d  24
2019 11 09 23  10 12 53.913   +31 45 20.94  1.0880 1.3900  83.8 21.9  44d  24
2019 11 10 00  10 13 01.211   +31 45 28.48  1.0879 1.3901  83.8 21.9  44d  24
2019 11 10 01  10 13 08.506   +31 45 36.03  1.0878 1.3903  83.8 21.9  44d  24
2019 11 10 02  10 13 15.799   +31 45 43.58  1.0878 1.3904  83.8 21.9  44d  24
2019 11 10 03  10 13 23.088   +31 45 51.13  1.0877 1.3906  83.9 21.9  44d  24
2019 11 10 04  10 13 30.375   +31 45 58.68  1.0876 1.3907  83.9 21.9  44d  24
2019 11 10 05  10 13 37.659   +31 46 06.23  1.0875 1.3909  83.9 21.9  44d  24
2019 11 10 06  10 13 44.940   +31 46 13.79  1.0874 1.3910  83.9 21.9  45d  24
2019 11 10 07  10 13 52.218   +31 46 21.34  1.0873 1.3912  83.9 21.9  45d  24
2019 11 10 08  10 13 59.493   +31 46 28.90  1.0872 1.3913  84.0 21.9  45d  24
2019 11 10 09  10 14 06.765   +31 46 36.45  1.0871 1.3915  84.0 21.9  45d  24
2019 11 10 10  10 14 14.035   +31 46 44.01  1.0870 1.3916  84.0 21.9  45d  24
2019 11 10 11  10 14 21.301   +31 46 51.57  1.0869 1.3918  84.0 21.9  45d  24
2019 11 10 12  10 14 28.565   +31 46 59.13  1.0868 1.3919  84.0 21.9  45d  24
2019 11 10 13  10 14 35.826   +31 47 06.69  1.0867 1.3921  84.0 21.9  45d  24
2019 11 10 14  10 14 43.084   +31 47 14.26  1.0866 1.3922  84.1 21.9  45d  24
2019 11 10 15  10 14 50.339   +31 47 21.82  1.0865 1.3924  84.1 21.9  45d  24
2019 11 10 16  10 14 57.591   +31 47 29.39  1.0864 1.3925  84.1 21.9  46d  24
2019 11 10 17  10 15 04.841   +31 47 36.96  1.0863 1.3927  84.1 21.9  46d  24
2019 11 10 18  10 15 12.087   +31 47 44.53  1.0862 1.3928  84.1 21.9  46d  24
2019 11 10 19  10 15 19.331   +31 47 52.10  1.0861 1.3930  84.1 21.9  46d  24
2019 11 10 20  10 15 26.571   +31 47 59.68  1.0860 1.3932  84.2 21.9  46d  24
2019 11 10 21  10 15 33.809   +31 48 07.25  1.0859 1.3933  84.2 21.9  46d  24
2019 11 10 22  10 15 41.044   +31 48 14.83  1.0858 1.3935  84.2 21.9  46d  24
2019 11 10 23  10 15 48.276   +31 48 22.41  1.0857 1.3936  84.2 21.9  46d  24
2019 11 11 00  10 15 55.506   +31 48 29.99  1.0856 1.3938  84.2 21.9  47d  24
2019 11 11 01  10 16 02.732   +31 48 37.57  1.0855 1.3939  84.2 21.9  47d  24
2019 11 11 02  10 16 09.955   +31 48 45.16  1.0854 1.3941  84.3 21.9  47d  24
2019 11 11 03  10 16 17.176   +31 48 52.74  1.0853 1.3942  84.3 21.9  47d  24
2019 11 11 04  10 16 24.393   +31 49 00.33  1.0852 1.3944  84.3 21.9  47d  24
2019 11 11 05  10 16 31.608   +31 49 07.92  1.0851 1.3945  84.3 21.9  47d  24
2019 11 11 06  10 16 38.820   +31 49 15.51  1.0850 1.3947  84.3 21.9  47d  24
2019 11 11 07  10 16 46.029   +31 49 23.11  1.0849 1.3948  84.3 21.9  47d  24
2019 11 11 08  10 16 53.235   +31 49 30.70  1.0848 1.3950  84.4 21.9  47d  24
2019 11 11 09  10 17 00.438   +31 49 38.30  1.0848 1.3951  84.4 21.9  48d  24
2019 11 11 10  10 17 07.639   +31 49 45.90  1.0847 1.3953  84.4 21.9  48d  24
2019 11 11 11  10 17 14.836   +31 49 53.50  1.0846 1.3954  84.4 21.9  48d  24